contact:dominique.lefevre@mio.osupytheas.fr, maurice.libes@osupytheas.fr, didier.mallarino@osupytheas.fr
Project:EMSO http://www.emso-fr.org/EMSO-France
Depth: 2436.0 m
Title:EMSO Ligure Ouest : Data MII capteur MICROCAT
DateTime_Computer,Latitude,Longitude,Temperature,Conductivity,Pressure,DateTime_Instrument
DateTime_Computer,Latitude,Longitude,degC,S m-1,dbar,DateTime_Instrument
2022-02-07T00:00:06Z,42.805,6.029,13.3026,4.60112,2470.156,2022-2-07T02:01:39Z
2022-02-07T00:03:09Z,42.805,6.029,13.3007,4.60096,2470.217,2022-2-07T02:04:42Z
2022-02-07T00:06:13Z,42.805,6.029,13.3030,4.60094,2470.18,2022-2-07T02:07:45Z
2022-02-07T00:09:16Z,42.805,6.029,13.3016,4.60101,2470.194,2022-2-07T02:10:49Z
2022-02-07T00:12:19Z,42.805,6.029,13.3029,4.60111,2470.217,2022-2-07T02:13:52Z
2022-02-07T00:15:22Z,42.805,6.029,13.3024,4.60110,2470.156,2022-2-07T02:16:55Z
2022-02-07T00:18:25Z,42.805,6.029,13.3019,4.60105,2470.156,2022-2-07T02:19:58Z
2022-02-07T00:21:28Z,42.805,6.029,13.3021,4.60097,2470.156,2022-2-07T02:23:01Z
2022-02-07T00:24:31Z,42.805,6.029,13.3015,4.60106,2470.264,2022-2-07T02:26:04Z
2022-02-07T00:27:34Z,42.805,6.029,13.3015,4.60087,2470.217,2022-2-07T02:29:07Z
2022-02-07T00:30:37Z,42.805,6.029,13.3021,4.60070,2470.171,2022-2-07T02:32:10Z
2022-02-07T00:33:41Z,42.805,6.029,13.3009,4.60089,2470.156,2022-2-07T02:35:13Z
2022-02-07T00:36:44Z,42.805,6.029,13.3014,4.60087,2470.171,2022-2-07T02:38:17Z
2022-02-07T00:39:47Z,42.805,6.029,13.3019,4.60091,2470.147,2022-2-07T02:41:20Z
2022-02-07T00:42:50Z,42.805,6.029,13.3007,4.60078,2470.133,2022-2-07T02:44:23Z
2022-02-07T00:45:53Z,42.805,6.029,13.3012,4.60079,2470.147,2022-2-07T02:47:26Z
2022-02-07T00:48:56Z,42.805,6.029,13.3015,4.60074,2470.124,2022-2-07T02:50:29Z
2022-02-07T00:51:59Z,42.805,6.029,13.3011,4.60080,2470.124,2022-2-07T02:53:32Z
2022-02-07T00:55:02Z,42.805,6.029,13.3016,4.60090,2470.11,2022-2-07T02:56:35Z
2022-02-07T00:58:06Z,42.805,6.029,13.3006,4.60078,2470.11,2022-2-07T02:59:38Z
2022-02-07T01:01:09Z,42.805,6.029,13.3004,4.60078,2470.11,2022-2-07T03:02:42Z
2022-02-07T01:04:12Z,42.805,6.029,13.3009,4.60077,2470.124,2022-2-07T03:05:45Z
2022-02-07T01:07:15Z,42.805,6.029,13.3013,4.60074,2470.077,2022-2-07T03:08:48Z
2022-02-07T01:10:18Z,42.805,6.029,13.3012,4.60091,2470.11,2022-2-07T03:11:51Z
2022-02-07T01:13:21Z,42.805,6.029,13.3027,4.60077,2470.087,2022-2-07T03:14:54Z
2022-02-07T01:16:24Z,42.805,6.029,13.3007,4.60084,2470.087,2022-2-07T03:17:57Z
2022-02-07T01:19:27Z,42.805,6.029,13.3013,4.60086,2470.087,2022-2-07T03:21:00Z
2022-02-07T01:22:30Z,42.805,6.029,13.3019,4.60087,2470.124,2022-2-07T03:24:03Z
2022-02-07T01:25:34Z,42.805,6.029,13.3025,4.60091,2470.124,2022-2-07T03:27:06Z
2022-02-07T01:28:37Z,42.805,6.029,13.3013,4.60074,2470.11,2022-2-07T03:30:10Z
2022-02-07T01:31:40Z,42.805,6.029,13.3012,4.60073,2470.04,2022-2-07T03:33:13Z
2022-02-07T01:34:43Z,42.805,6.029,13.3026,4.60084,2470.11,2022-2-07T03:36:16Z
2022-02-07T01:37:46Z,42.805,6.029,13.3019,4.60098,2470.087,2022-2-07T03:39:19Z
2022-02-07T01:40:49Z,42.805,6.029,13.3014,4.60068,2470.1,2022-2-07T03:42:22Z
2022-02-07T01:43:52Z,42.805,6.029,13.3018,4.60085,2470.077,2022-2-07T03:45:25Z
2022-02-07T01:46:55Z,42.805,6.029,13.3028,4.60054,2470.133,2022-2-07T03:48:28Z
2022-02-07T01:49:59Z,42.805,6.029,13.3032,4.60087,2470.087,2022-2-07T03:51:31Z
2022-02-07T01:53:02Z,42.805,6.029,13.3024,4.60067,2470.11,2022-2-07T03:54:34Z
2022-02-07T01:56:05Z,42.805,6.029,13.3024,4.60055,2470.087,2022-2-07T03:57:38Z
2022-02-07T01:59:08Z,42.805,6.029,13.3000,4.60084,2470.077,2022-2-07T04:00:41Z
2022-02-07T02:02:11Z,42.805,6.029,13.3026,4.60072,2470.087,2022-2-07T04:03:44Z
2022-02-07T02:05:14Z,42.805,6.029,13.3012,4.60066,2470.124,2022-2-07T04:06:47Z
2022-02-07T02:08:17Z,42.805,6.029,13.3012,4.60089,2470.1,2022-2-07T04:09:50Z
2022-02-07T02:11:20Z,42.805,6.029,13.3023,4.60092,2470.063,2022-2-07T04:12:53Z
2022-02-07T02:14:23Z,42.805,6.029,13.3013,4.60079,2470.077,2022-2-07T04:15:56Z
2022-02-07T02:17:27Z,42.805,6.029,13.3011,4.60086,2470.063,2022-2-07T04:18:59Z
2022-02-07T02:20:30Z,42.805,6.029,13.3022,4.60056,2470.087,2022-2-07T04:22:03Z
2022-02-07T02:23:33Z,42.805,6.029,13.3014,4.60057,2470.087,2022-2-07T04:25:06Z
2022-02-07T02:26:36Z,42.805,6.029,13.3009,4.60076,2470.087,2022-2-07T04:28:09Z
2022-02-07T02:29:39Z,42.805,6.029,13.3011,4.60045,2470.077,2022-2-07T04:31:12Z
2022-02-07T02:32:42Z,42.805,6.029,13.3015,4.60041,2470.077,2022-2-07T04:34:15Z
2022-02-07T02:35:45Z,42.805,6.029,13.3009,4.60040,2470.063,2022-2-07T04:37:18Z
2022-02-07T02:38:48Z,42.805,6.029,13.3025,4.60039,2470.087,2022-2-07T04:40:21Z
2022-02-07T02:41:51Z,42.805,6.029,13.3037,4.60041,2470.063,2022-2-07T04:43:24Z
2022-02-07T02:44:55Z,42.805,6.029,13.3018,4.60060,2470.04,2022-2-07T04:46:27Z
2022-02-07T02:47:58Z,42.805,6.029,13.3004,4.60028,2470.03,2022-2-07T04:49:31Z
2022-02-07T02:51:01Z,42.805,6.029,13.3027,4.60039,2470.04,2022-2-07T04:52:34Z
2022-02-07T02:54:04Z,42.805,6.029,13.3006,4.60030,2470.077,2022-2-07T04:55:37Z
2022-02-07T02:57:07Z,42.805,6.029,13.3001,4.60028,2470.063,2022-2-07T04:58:40Z
2022-02-07T03:00:10Z,42.805,6.029,13.3014,4.60051,2470.063,2022-2-07T05:01:43Z
2022-02-07T03:03:13Z,42.805,6.029,13.3044,4.60038,2470.077,2022-2-07T05:04:46Z
2022-02-07T03:06:16Z,42.805,6.029,13.3019,4.60054,2470.077,2022-2-07T05:07:49Z
2022-02-07T03:09:20Z,42.805,6.029,13.3019,4.60049,2470.087,2022-2-07T05:10:52Z
2022-02-07T03:12:23Z,42.805,6.029,13.3011,4.60029,2470.087,2022-2-07T05:13:56Z
2022-02-07T03:15:26Z,42.805,6.029,13.2998,4.60028,2470.087,2022-2-07T05:16:59Z
2022-02-07T03:18:29Z,42.805,6.029,13.2995,4.60026,2470.077,2022-2-07T05:20:02Z
2022-02-07T03:21:32Z,42.805,6.029,13.3004,4.60033,2470.063,2022-2-07T05:23:05Z
2022-02-07T03:24:35Z,42.805,6.029,13.3000,4.60045,2470.087,2022-2-07T05:26:08Z
2022-02-07T03:27:38Z,42.805,6.029,13.3022,4.60048,2470.087,2022-2-07T05:29:11Z
2022-02-07T03:30:41Z,42.805,6.029,13.2995,4.60024,2470.077,2022-2-07T05:32:14Z
2022-02-07T03:33:44Z,42.805,6.029,13.2998,4.60024,2470.087,2022-2-07T05:35:17Z
2022-02-07T03:36:48Z,42.805,6.029,13.2996,4.60021,2470.077,2022-2-07T05:38:20Z
2022-02-07T03:39:51Z,42.805,6.029,13.2996,4.60021,2470.087,2022-2-07T05:41:24Z
2022-02-07T03:42:54Z,42.805,6.029,13.2994,4.60033,2470.11,2022-2-07T05:44:27Z
2022-02-07T03:45:57Z,42.805,6.029,13.2998,4.60031,2470.124,2022-2-07T05:47:30Z
2022-02-07T03:49:00Z,42.805,6.029,13.3017,4.60043,2470.124,2022-2-07T05:50:33Z
2022-02-07T03:52:03Z,42.805,6.029,13.2998,4.60031,2470.124,2022-2-07T05:53:36Z
2022-02-07T03:55:06Z,42.805,6.029,13.3006,4.60023,2470.087,2022-2-07T05:56:39Z
2022-02-07T03:58:09Z,42.805,6.029,13.2995,4.60024,2470.077,2022-2-07T05:59:42Z
2022-02-07T04:01:13Z,42.805,6.029,13.2996,4.60022,2470.087,2022-2-07T06:02:45Z
2022-02-07T04:04:16Z,42.805,6.029,13.2995,4.60021,2470.077,2022-2-07T06:05:49Z
2022-02-07T04:07:19Z,42.805,6.029,13.2993,4.60021,2470.087,2022-2-07T06:08:52Z
2022-02-07T04:10:22Z,42.805,6.029,13.2993,4.60023,2470.063,2022-2-07T06:11:55Z
2022-02-07T04:13:25Z,42.805,6.029,13.2998,4.60025,2470.1,2022-2-07T06:14:58Z
2022-02-07T04:16:28Z,42.805,6.029,13.2995,4.60025,2470.03,2022-2-07T06:18:01Z
2022-02-07T04:19:31Z,42.805,6.029,13.2994,4.60022,2470.04,2022-2-07T06:21:04Z
2022-02-07T04:22:34Z,42.805,6.029,13.2994,4.60026,2470.053,2022-2-07T06:24:07Z
2022-02-07T04:25:37Z,42.805,6.029,13.2993,4.60023,2470.04,2022-2-07T06:27:10Z
2022-02-07T04:28:41Z,42.805,6.029,13.2993,4.60023,2470.04,2022-2-07T06:30:13Z
2022-02-07T04:31:44Z,42.805,6.029,13.2993,4.60021,2470.017,2022-2-07T06:33:17Z
2022-02-07T04:34:47Z,42.805,6.029,13.2993,4.60021,2470.053,2022-2-07T06:36:20Z
2022-02-07T04:37:50Z,42.805,6.029,13.2995,4.60022,2470.017,2022-2-07T06:39:23Z
2022-02-07T04:40:53Z,42.805,6.029,13.3000,4.60021,2470.017,2022-2-07T06:42:26Z
2022-02-07T04:43:56Z,42.805,6.029,13.2993,4.60022,2470.04,2022-2-07T06:45:29Z
2022-02-07T04:46:59Z,42.805,6.029,13.3001,4.60039,2469.993,2022-2-07T06:48:32Z
2022-02-07T04:50:02Z,42.805,6.029,13.3003,4.60029,2470.04,2022-2-07T06:51:35Z
2022-02-07T04:53:06Z,42.805,6.029,13.3011,4.60054,2470.053,2022-2-07T06:54:38Z
2022-02-07T04:56:09Z,42.805,6.029,13.3004,4.60028,2470.017,2022-2-07T06:57:42Z
2022-02-07T04:59:12Z,42.805,6.029,13.2999,4.60026,2470.04,2022-2-07T07:00:45Z
2022-02-07T05:02:15Z,42.805,6.029,13.3013,4.60026,2470.03,2022-2-07T07:03:48Z
2022-02-07T05:05:18Z,42.805,6.029,13.3030,4.60054,2469.993,2022-2-07T07:06:51Z
2022-02-07T05:08:21Z,42.805,6.029,13.3011,4.60062,2470.017,2022-2-07T07:09:54Z
2022-02-07T05:11:24Z,42.805,6.029,13.3019,4.60057,2470.077,2022-2-07T07:12:57Z
2022-02-07T05:14:27Z,42.805,6.029,13.3021,4.60043,2470.053,2022-2-07T07:16:00Z
2022-02-07T05:17:30Z,42.805,6.029,13.3022,4.60047,2470.03,2022-2-07T07:19:03Z
2022-02-07T05:20:34Z,42.805,6.029,13.3004,4.60024,2470.04,2022-2-07T07:22:06Z
2022-02-07T05:23:37Z,42.805,6.029,13.2998,4.60024,2469.993,2022-2-07T07:25:10Z
2022-02-07T05:26:40Z,42.805,6.029,13.2997,4.60024,2470.04,2022-2-07T07:28:13Z
2022-02-07T05:29:43Z,42.805,6.029,13.3006,4.60041,2469.993,2022-2-07T07:31:16Z
2022-02-07T05:32:46Z,42.805,6.029,13.2996,4.60023,2470.007,2022-2-07T07:34:19Z
2022-02-07T05:35:49Z,42.805,6.029,13.3009,4.60038,2470.017,2022-2-07T07:37:22Z
2022-02-07T05:38:52Z,42.805,6.029,13.3012,4.60035,2470.007,2022-2-07T07:40:25Z
2022-02-07T05:41:55Z,42.805,6.029,13.3004,4.60030,2470.03,2022-2-07T07:43:28Z
2022-02-07T05:44:59Z,42.805,6.029,13.3011,4.60057,2470.017,2022-2-07T07:46:31Z
2022-02-07T05:48:02Z,42.805,6.029,13.3013,4.60068,2470.077,2022-2-07T07:49:35Z
2022-02-07T05:51:05Z,42.805,6.029,13.3026,4.60044,2470.007,2022-2-07T07:52:38Z
2022-02-07T05:54:08Z,42.805,6.029,13.3009,4.60052,2470.007,2022-2-07T07:55:41Z
2022-02-07T05:57:11Z,42.805,6.029,13.2998,4.60023,2470.063,2022-2-07T07:58:44Z
2022-02-07T06:00:14Z,42.805,6.029,13.3011,4.60044,2470.017,2022-2-07T08:01:47Z
2022-02-07T06:03:17Z,42.805,6.029,13.3011,4.60043,2470.007,2022-2-07T08:04:50Z
2022-02-07T06:06:20Z,42.805,6.029,13.3009,4.60024,2469.993,2022-2-07T08:07:53Z
2022-02-07T06:09:23Z,42.805,6.029,13.3009,4.60038,2470.017,2022-2-07T08:10:56Z
2022-02-07T06:12:27Z,42.805,6.029,13.3027,4.60058,2470.03,2022-2-07T08:13:59Z
2022-02-07T06:15:30Z,42.805,6.029,13.3006,4.60043,2470.053,2022-2-07T08:17:03Z
2022-02-07T06:18:33Z,42.805,6.029,13.3025,4.60029,2470.04,2022-2-07T08:20:06Z
2022-02-07T06:21:36Z,42.805,6.029,13.3026,4.60044,2469.993,2022-2-07T08:23:09Z
2022-02-07T06:24:39Z,42.805,6.029,13.3012,4.60038,2470.053,2022-2-07T08:26:12Z
2022-02-07T06:27:42Z,42.805,6.029,13.2996,4.60039,2470.03,2022-2-07T08:29:15Z
2022-02-07T06:30:45Z,42.805,6.029,13.2993,4.60022,2470.053,2022-2-07T08:32:18Z
2022-02-07T06:33:48Z,42.805,6.029,13.3000,4.60022,2470.03,2022-2-07T08:35:21Z
2022-02-07T06:36:52Z,42.805,6.029,13.3044,4.60031,2470.017,2022-2-07T08:38:24Z
2022-02-07T06:39:55Z,42.805,6.029,13.3004,4.60038,2470.017,2022-2-07T08:41:28Z
2022-02-07T06:42:58Z,42.805,6.029,13.3022,4.60046,2470.04,2022-2-07T08:44:31Z
2022-02-07T06:46:01Z,42.805,6.029,13.3028,4.60036,2470.053,2022-2-07T08:47:34Z
2022-02-07T06:49:04Z,42.805,6.029,13.3019,4.60038,2470.053,2022-2-07T08:50:37Z
2022-02-07T06:52:07Z,42.805,6.029,13.2993,4.60027,2470.053,2022-2-07T08:53:40Z
2022-02-07T06:55:10Z,42.805,6.029,13.2999,4.60029,2470.03,2022-2-07T08:56:43Z
2022-02-07T06:58:13Z,42.805,6.029,13.2994,4.60026,2470.017,2022-2-07T08:59:46Z
2022-02-07T07:01:16Z,42.805,6.029,13.2992,4.60028,2470.04,2022-2-07T09:02:49Z
2022-02-07T07:04:20Z,42.805,6.029,13.3004,4.60029,2470.063,2022-2-07T09:05:53Z
2022-02-07T07:07:23Z,42.805,6.029,13.3002,4.60024,2470.017,2022-2-07T09:08:56Z
2022-02-07T07:10:26Z,42.805,6.029,13.2995,4.60026,2470.03,2022-2-07T09:11:59Z
2022-02-07T07:13:29Z,42.805,6.029,13.2996,4.60029,2470.04,2022-2-07T09:15:02Z
2022-02-07T07:16:32Z,42.805,6.029,13.2993,4.60024,2470.03,2022-2-07T09:18:05Z
2022-02-07T07:19:35Z,42.805,6.029,13.3000,4.60026,2470.063,2022-2-07T09:21:08Z
2022-02-07T07:22:38Z,42.805,6.029,13.3000,4.60025,2470.04,2022-2-07T09:24:11Z
2022-02-07T07:25:41Z,42.805,6.029,13.2993,4.60023,2470.04,2022-2-07T09:27:14Z
2022-02-07T07:28:45Z,42.805,6.029,13.2995,4.60028,2470.087,2022-2-07T09:30:17Z
2022-02-07T07:31:48Z,42.805,6.029,13.2994,4.60025,2470.077,2022-2-07T09:33:21Z
2022-02-07T07:34:51Z,42.805,6.029,13.2993,4.60027,2470.077,2022-2-07T09:36:24Z
2022-02-07T07:37:54Z,42.805,6.029,13.2996,4.60027,2470.017,2022-2-07T09:39:27Z
2022-02-07T07:40:57Z,42.805,6.029,13.3009,4.60029,2470.063,2022-2-07T09:42:30Z
2022-02-07T07:44:00Z,42.805,6.029,13.3006,4.60028,2470.063,2022-2-07T09:45:33Z
2022-02-07T07:47:03Z,42.805,6.029,13.3004,4.60031,2470.124,2022-2-07T09:48:36Z
2022-02-07T07:50:06Z,42.805,6.029,13.2998,4.60031,2470.063,2022-2-07T09:51:39Z
2022-02-07T07:53:10Z,42.805,6.029,13.2996,4.60035,2470.04,2022-2-07T09:54:42Z
2022-02-07T07:56:13Z,42.805,6.029,13.2993,4.60027,2470.124,2022-2-07T09:57:46Z
2022-02-07T07:59:16Z,42.805,6.029,13.2994,4.60024,2470.1,2022-2-07T10:00:49Z
2022-02-07T08:02:19Z,42.805,6.029,13.3000,4.60026,2470.077,2022-2-07T10:03:52Z
2022-02-07T08:05:22Z,42.805,6.029,13.2993,4.60033,2470.087,2022-2-07T10:06:55Z
2022-02-07T08:08:25Z,42.805,6.029,13.2993,4.60033,2470.1,2022-2-07T10:09:58Z
2022-02-07T08:11:28Z,42.805,6.029,13.2996,4.60030,2470.063,2022-2-07T10:13:01Z
2022-02-07T08:14:31Z,42.805,6.029,13.2992,4.60023,2470.1,2022-2-07T10:16:04Z
2022-02-07T08:17:34Z,42.805,6.029,13.2998,4.60028,2470.1,2022-2-07T10:19:07Z
2022-02-07T08:20:38Z,42.805,6.029,13.2996,4.60026,2470.087,2022-2-07T10:22:10Z
2022-02-07T08:23:41Z,42.805,6.029,13.2997,4.60029,2470.087,2022-2-07T10:25:14Z
2022-02-07T08:26:44Z,42.805,6.029,13.2996,4.60033,2470.087,2022-2-07T10:28:17Z
2022-02-07T08:29:47Z,42.805,6.029,13.2992,4.60022,2470.087,2022-2-07T10:31:20Z
2022-02-07T08:32:50Z,42.805,6.029,13.2992,4.60026,2470.077,2022-2-07T10:34:23Z
2022-02-07T08:35:53Z,42.805,6.029,13.2996,4.60026,2470.1,2022-2-07T10:37:26Z
2022-02-07T08:38:56Z,42.805,6.029,13.2997,4.60036,2470.1,2022-2-07T10:40:29Z
2022-02-07T08:41:59Z,42.805,6.029,13.2996,4.60032,2470.1,2022-2-07T10:43:32Z
2022-02-07T08:45:03Z,42.805,6.029,13.2994,4.60029,2470.124,2022-2-07T10:46:35Z
2022-02-07T08:48:06Z,42.805,6.029,13.2993,4.60026,2470.1,2022-2-07T10:49:39Z
2022-02-07T08:51:09Z,42.805,6.029,13.2996,4.60033,2470.1,2022-2-07T10:52:42Z
2022-02-07T08:54:12Z,42.805,6.029,13.2997,4.60026,2470.11,2022-2-07T10:55:45Z
2022-02-07T08:57:15Z,42.805,6.029,13.2996,4.60031,2470.147,2022-2-07T10:58:48Z
2022-02-07T09:00:18Z,42.805,6.029,13.2995,4.60029,2470.124,2022-2-07T11:01:51Z
2022-02-07T09:03:21Z,42.805,6.029,13.2998,4.60028,2470.147,2022-2-07T11:04:54Z
2022-02-07T09:06:24Z,42.805,6.029,13.2995,4.60029,2470.133,2022-2-07T11:07:57Z
2022-02-07T09:09:28Z,42.805,6.029,13.2993,4.60024,2470.147,2022-2-07T11:11:00Z
2022-02-07T09:12:31Z,42.805,6.029,13.2994,4.60026,2470.171,2022-2-07T11:14:04Z
2022-02-07T09:15:34Z,42.805,6.029,13.2995,4.60033,2470.171,2022-2-07T11:17:07Z
2022-02-07T09:18:37Z,42.805,6.029,13.2996,4.60033,2470.156,2022-2-07T11:20:10Z
2022-02-07T09:21:40Z,42.805,6.029,13.2991,4.60029,2470.156,2022-2-07T11:23:13Z
2022-02-07T09:24:43Z,42.805,6.029,13.2997,4.60029,2470.147,2022-2-07T11:26:16Z
2022-02-07T09:27:46Z,42.805,6.029,13.2997,4.60024,2470.133,2022-2-07T11:29:19Z
2022-02-07T09:30:49Z,42.805,6.029,13.2996,4.60025,2470.156,2022-2-07T11:32:22Z
2022-02-07T09:33:53Z,42.805,6.029,13.2994,4.60026,2470.156,2022-2-07T11:35:25Z
2022-02-07T09:36:56Z,42.805,6.029,13.2996,4.60024,2470.171,2022-2-07T11:38:29Z
2022-02-07T09:39:59Z,42.805,6.029,13.2996,4.60025,2470.24,2022-2-07T11:41:32Z
2022-02-07T09:43:02Z,42.805,6.029,13.2998,4.60026,2470.217,2022-2-07T11:44:35Z
2022-02-07T09:46:05Z,42.805,6.029,13.2996,4.60024,2470.194,2022-2-07T11:47:38Z
2022-02-07T09:49:08Z,42.805,6.029,13.2998,4.60022,2470.217,2022-2-07T11:50:41Z
2022-02-07T09:52:11Z,42.805,6.029,13.2996,4.60022,2470.217,2022-2-07T11:53:44Z
2022-02-07T09:55:14Z,42.805,6.029,13.2993,4.60024,2470.227,2022-2-07T11:56:47Z
2022-02-07T09:58:18Z,42.805,6.029,13.2994,4.60023,2470.24,2022-2-07T11:59:50Z
2022-02-07T10:01:21Z,42.805,6.029,13.2993,4.60023,2470.18,2022-2-07T12:02:54Z
2022-02-07T10:04:24Z,42.805,6.029,13.2994,4.60022,2470.203,2022-2-07T12:05:57Z
2022-02-07T10:07:27Z,42.805,6.029,13.2991,4.60022,2470.194,2022-2-07T12:09:00Z
2022-02-07T10:10:30Z,42.805,6.029,13.2992,4.60024,2470.18,2022-2-07T12:12:03Z
2022-02-07T10:13:33Z,42.805,6.029,13.2993,4.60024,2470.194,2022-2-07T12:15:06Z
2022-02-07T10:16:36Z,42.805,6.029,13.2994,4.60024,2470.18,2022-2-07T12:18:09Z
2022-02-07T10:19:39Z,42.805,6.029,13.2998,4.60026,2470.203,2022-2-07T12:21:12Z
2022-02-07T10:22:43Z,42.805,6.029,13.2994,4.60024,2470.18,2022-2-07T12:24:15Z
2022-02-07T10:25:46Z,42.805,6.029,13.3000,4.60028,2470.217,2022-2-07T12:27:19Z
2022-02-07T10:28:49Z,42.805,6.029,13.2997,4.60022,2470.18,2022-2-07T12:30:22Z
2022-02-07T10:31:52Z,42.805,6.029,13.2998,4.60022,2470.203,2022-2-07T12:33:25Z
2022-02-07T10:34:55Z,42.805,6.029,13.2997,4.60026,2470.203,2022-2-07T12:36:28Z
2022-02-07T10:37:58Z,42.805,6.029,13.2995,4.60024,2470.156,2022-2-07T12:39:31Z
2022-02-07T10:41:01Z,42.805,6.029,13.2996,4.60024,2470.156,2022-2-07T12:42:34Z
2022-02-07T10:44:04Z,42.805,6.029,13.2996,4.60026,2470.18,2022-2-07T12:45:37Z
2022-02-07T10:47:08Z,42.805,6.029,13.3000,4.60025,2470.203,2022-2-07T12:48:40Z
2022-02-07T10:50:11Z,42.805,6.029,13.2996,4.60024,2470.217,2022-2-07T12:51:44Z
2022-02-07T10:53:14Z,42.805,6.029,13.2998,4.60025,2470.194,2022-2-07T12:54:47Z
2022-02-07T10:56:17Z,42.805,6.029,13.2994,4.60025,2470.194,2022-2-07T12:57:50Z
2022-02-07T10:59:20Z,42.805,6.029,13.2996,4.60031,2470.18,2022-2-07T13:00:53Z
2022-02-07T11:02:23Z,42.805,6.029,13.2998,4.60025,2470.203,2022-2-07T13:03:56Z
2022-02-07T11:05:26Z,42.805,6.029,13.2998,4.60024,2470.18,2022-2-07T13:06:59Z
2022-02-07T11:08:29Z,42.805,6.029,13.2998,4.60023,2470.18,2022-2-07T13:10:02Z
2022-02-07T11:11:33Z,42.805,6.029,13.2996,4.60022,2470.217,2022-2-07T13:13:05Z
2022-02-07T11:14:36Z,42.805,6.029,13.2993,4.60023,2470.194,2022-2-07T13:16:09Z
2022-02-07T11:17:39Z,42.805,6.029,13.2995,4.60025,2470.18,2022-2-07T13:19:12Z
2022-02-07T11:20:42Z,42.805,6.029,13.3000,4.60022,2470.18,2022-2-07T13:22:15Z
2022-02-07T11:23:45Z,42.805,6.029,13.2997,4.60021,2470.217,2022-2-07T13:25:18Z
2022-02-07T11:26:48Z,42.805,6.029,13.2996,4.60022,2470.156,2022-2-07T13:28:21Z
2022-02-07T11:29:51Z,42.805,6.029,13.2996,4.60023,2470.194,2022-2-07T13:31:24Z
2022-02-07T11:32:54Z,42.805,6.029,13.2995,4.60022,2470.194,2022-2-07T13:34:27Z
2022-02-07T11:35:58Z,42.805,6.029,13.2997,4.60022,2470.156,2022-2-07T13:37:30Z
2022-02-07T11:39:01Z,42.805,6.029,13.2997,4.60026,2470.18,2022-2-07T13:40:34Z
2022-02-07T11:42:04Z,42.805,6.029,13.2996,4.60025,2470.194,2022-2-07T13:43:37Z
2022-02-07T11:45:07Z,42.805,6.029,13.2996,4.60024,2470.194,2022-2-07T13:46:40Z
2022-02-07T11:48:10Z,42.805,6.029,13.2998,4.60023,2470.156,2022-2-07T13:49:43Z
2022-02-07T11:51:13Z,42.805,6.029,13.2997,4.60022,2470.171,2022-2-07T13:52:46Z
2022-02-07T11:54:16Z,42.805,6.029,13.2998,4.60022,2470.156,2022-2-07T13:55:49Z
2022-02-07T11:57:19Z,42.805,6.029,13.2993,4.60022,2470.171,2022-2-07T13:58:52Z
2022-02-07T12:00:23Z,42.805,6.029,13.2998,4.60023,2470.133,2022-2-07T14:01:55Z
2022-02-07T12:03:26Z,42.805,6.029,13.2996,4.60026,2470.194,2022-2-07T14:04:59Z
2022-02-07T12:06:29Z,42.805,6.029,13.2996,4.60022,2470.156,2022-2-07T14:08:02Z
2022-02-07T12:09:32Z,42.805,6.029,13.2996,4.60024,2470.156,2022-2-07T14:11:05Z
2022-02-07T12:12:35Z,42.805,6.029,13.3000,4.60024,2470.11,2022-2-07T14:14:08Z
2022-02-07T12:15:38Z,42.805,6.029,13.2998,4.60026,2470.133,2022-2-07T14:17:11Z
2022-02-07T12:18:41Z,42.805,6.029,13.2999,4.60023,2470.18,2022-2-07T14:20:14Z
2022-02-07T12:21:44Z,42.805,6.029,13.2998,4.60022,2470.156,2022-2-07T14:23:17Z
2022-02-07T12:24:47Z,42.805,6.029,13.2998,4.60024,2470.156,2022-2-07T14:26:20Z
2022-02-07T12:27:51Z,42.805,6.029,13.2994,4.60024,2470.156,2022-2-07T14:29:24Z
2022-02-07T12:30:54Z,42.805,6.029,13.2993,4.60022,2470.156,2022-2-07T14:32:27Z
2022-02-07T12:33:57Z,42.805,6.029,13.2998,4.60029,2470.171,2022-2-07T14:35:30Z
2022-02-07T12:37:00Z,42.805,6.029,13.2998,4.60031,2470.156,2022-2-07T14:38:33Z
2022-02-07T12:40:03Z,42.805,6.029,13.2998,4.60024,2470.194,2022-2-07T14:41:36Z
2022-02-07T12:43:06Z,42.805,6.029,13.2996,4.60031,2470.171,2022-2-07T14:44:39Z
2022-02-07T12:46:09Z,42.805,6.029,13.2998,4.60023,2470.171,2022-2-07T14:47:42Z
2022-02-07T12:49:12Z,42.805,6.029,13.2997,4.60021,2470.147,2022-2-07T14:50:45Z
2022-02-07T12:52:16Z,42.805,6.029,13.2996,4.60026,2470.156,2022-2-07T14:53:48Z
2022-02-07T12:55:19Z,42.805,6.029,13.3004,4.60023,2470.171,2022-2-07T14:56:52Z
2022-02-07T12:58:22Z,42.805,6.029,13.3000,4.60027,2470.18,2022-2-07T14:59:55Z
2022-02-07T13:01:25Z,42.805,6.029,13.2997,4.60030,2470.171,2022-2-07T15:02:58Z
2022-02-07T13:04:28Z,42.805,6.029,13.2997,4.60023,2470.171,2022-2-07T15:06:01Z
2022-02-07T13:07:31Z,42.805,6.029,13.2996,4.60024,2470.156,2022-2-07T15:09:04Z
2022-02-07T13:10:34Z,42.805,6.029,13.2997,4.60029,2470.156,2022-2-07T15:12:07Z
2022-02-07T13:13:37Z,42.805,6.029,13.3001,4.60021,2470.194,2022-2-07T15:15:10Z
2022-02-07T13:16:41Z,42.805,6.029,13.2998,4.60022,2470.133,2022-2-07T15:18:13Z
2022-02-07T13:19:44Z,42.805,6.029,13.2999,4.60021,2470.171,2022-2-07T15:21:17Z
2022-02-07T13:22:47Z,42.805,6.029,13.2996,4.60023,2470.171,2022-2-07T15:24:20Z
2022-02-07T13:25:50Z,42.805,6.029,13.2998,4.60037,2470.156,2022-2-07T15:27:23Z
2022-02-07T13:28:53Z,42.805,6.029,13.2996,4.60023,2470.18,2022-2-07T15:30:26Z
2022-02-07T13:31:56Z,42.805,6.029,13.2996,4.60029,2470.18,2022-2-07T15:33:29Z
2022-02-07T13:34:59Z,42.805,6.029,13.2997,4.60022,2470.18,2022-2-07T15:36:32Z
2022-02-07T13:38:02Z,42.805,6.029,13.2998,4.60022,2470.156,2022-2-07T15:39:35Z
2022-02-07T13:41:06Z,42.805,6.029,13.2992,4.60024,2470.11,2022-2-07T15:42:38Z
2022-02-07T13:44:09Z,42.805,6.029,13.2996,4.60023,2470.156,2022-2-07T15:45:42Z
2022-02-07T13:47:12Z,42.805,6.029,13.2996,4.60022,2470.156,2022-2-07T15:48:45Z
2022-02-07T13:50:15Z,42.805,6.029,13.2998,4.60029,2470.18,2022-2-07T15:51:48Z
2022-02-07T13:53:18Z,42.805,6.029,13.2995,4.60024,2470.18,2022-2-07T15:54:51Z
2022-02-07T13:56:21Z,42.805,6.029,13.2999,4.60025,2470.156,2022-2-07T15:57:54Z
2022-02-07T13:59:24Z,42.805,6.029,13.3004,4.60027,2470.171,2022-2-07T16:00:57Z
2022-02-07T14:02:27Z,42.805,6.029,13.2998,4.60023,2470.119,2022-2-07T16:04:00Z
2022-02-07T14:05:30Z,42.805,6.029,13.2996,4.60021,2470.156,2022-2-07T16:07:03Z
2022-02-07T14:08:34Z,42.805,6.029,13.3000,4.60021,2470.171,2022-2-07T16:10:07Z
2022-02-07T14:11:37Z,42.805,6.029,13.2994,4.60025,2470.194,2022-2-07T16:13:10Z
2022-02-07T14:14:40Z,42.805,6.029,13.2998,4.60024,2470.147,2022-2-07T16:16:13Z
2022-02-07T14:20:46Z,42.805,6.029,13.2999,4.60024,2470.133,2022-2-07T16:22:19Z
2022-02-07T14:23:49Z,42.805,6.029,13.2998,4.60028,2470.194,2022-2-07T16:25:22Z
2022-02-07T14:26:52Z,42.805,6.029,13.2995,4.60036,2470.147,2022-2-07T16:28:25Z
2022-02-07T14:29:55Z,42.805,6.029,13.2999,4.60021,2470.124,2022-2-07T16:31:28Z
2022-02-07T14:32:58Z,42.805,6.029,13.2996,4.60022,2470.133,2022-2-07T16:34:31Z
2022-02-07T14:36:02Z,42.805,6.029,13.2995,4.60021,2470.156,2022-2-07T16:37:34Z
2022-02-07T14:39:05Z,42.805,6.029,13.2994,4.60022,2470.147,2022-2-07T16:40:38Z
2022-02-07T14:42:08Z,42.805,6.029,13.2996,4.60028,2470.156,2022-2-07T16:43:41Z
2022-02-07T14:45:11Z,42.805,6.029,13.2998,4.60029,2470.133,2022-2-07T16:46:44Z
2022-02-07T14:48:14Z,42.805,6.029,13.2999,4.60026,2470.11,2022-2-07T16:49:47Z
2022-02-07T14:51:17Z,42.805,6.029,13.2994,4.60022,2470.133,2022-2-07T16:52:50Z
2022-02-07T14:54:20Z,42.805,6.029,13.2996,4.60022,2470.11,2022-2-07T16:55:53Z
2022-02-07T14:57:23Z,42.805,6.029,13.2996,4.60022,2470.063,2022-2-07T16:58:56Z
2022-02-07T15:00:27Z,42.805,6.029,13.3005,4.60022,2470.1,2022-2-07T17:01:59Z
2022-02-07T15:03:30Z,42.805,6.029,13.2997,4.60023,2470.18,2022-2-07T17:05:03Z
2022-02-07T15:06:33Z,42.805,6.029,13.3008,4.60026,2470.077,2022-2-07T17:08:06Z
2022-02-07T15:09:36Z,42.805,6.029,13.2998,4.60029,2470.147,2022-2-07T17:11:09Z
2022-02-07T15:12:39Z,42.805,6.029,13.2997,4.60026,2470.053,2022-2-07T17:14:12Z
2022-02-07T15:15:42Z,42.805,6.029,13.2995,4.60022,2470.053,2022-2-07T17:17:15Z